Weather in Tsibulev

Ukraine / Cherkassi District     49°04′24″N   29°50′49″E
temp.,
°C
wind,
m/s
gust,
m/s
humid.,
%
clouds,
%
prec.,
mm/h
press.,
hPa
HPBL,
m
6 may, thu
thu600:00+9sse71391100 2.0 1008459
03:00+8s714855 2.2 1007473
06:00+7s7148529 0.0 1006370
09:00+11sw697998 0.0 1009638
12:00+9nw5979100 0.0 1011757
15:00+13wnw6851100 0.1 10121752
18:00+14wnw475310 0.0 10122089
21:00+8nnw33645 0.0 101324
7 may, fri
fri700:00+7wnw006172 0.0 101510
03:00+6s226255 0.0 101516
06:00+6s3677100 0.0 101588
09:00+12s61162100 0.0 1014618
12:00+12sse71371100 0.0 1012901
15:00+15s91379100 0.6 10091246
18:00+13ssw41091100 5.2 1008311
21:00+13ssw51095100 9.6 1007316
8 may, sat
sat800:00+12ssw4799100 4.4 1007279
03:00+10w51094100 8.5 1008541
06:00+8nw61384100 0.5 1010599
09:00+7wnw81177100 0.5 1013815
12:00+10wnw810565 0.0 10151553
15:00+10nw9105584 0.1 10162011
18:00+9nw69615 0.1 10181621
21:00+6nw410710 0.1 1020314
9 may, sun
sun900:00+4wnw49804 0.0 1022182
03:00+3wnw38921 0.0 1023181
06:00+2nw39925 0.0 1025201
09:00+7nw46675 0.0 1026642
12:00+11nnw34525 0.0 10261370
15:00+13nw344461 0.0 10262189
18:00+14nw234856 0.0 10251787
21:00+9nne11625 0.0 102710
10 may, mon
mon1000:00+7sse33685 0.0 102821
03:00+6sse33715 0.0 102835
06:00+5sse22745 0.0 102925
09:00+11se35615 0.0 1029434
12:00+15se44515 0.0 10291506
15:00+16ese33460 0.0 10271663
18:00+16e33502 0.0 10261546
21:00+9e48720 0.0 1027139